Time,TemperatureF,DewpointF,PressureIn,WindDirection,WindDirectionDegrees,WindSpeedMPH,WindSpeedGustMPH,Humidity,HourlyPrecipIn,Conditions,Clouds,dailyrainin,SoftwareType,DateUTC
2013-07-06 00:00:00,83.8,77.3,29.91,ESE,116,17.0,24.0,81,0.00,CLR,,0.00,WeatherDisplay:10.37,2013-07-06 06:00:00,
2013-07-06 00:15:00,83.7,78.0,29.91,ESE,109,13.0,24.0,83,0.00,CLR,,0.00,WeatherDisplay:10.37,2013-07-06 06:15:00,
2013-07-06 00:30:00,83.5,77.8,29.90,ESE,117,16.0,24.0,83,0.00,CLR,,0.00,WeatherDisplay:10.37,2013-07-06 06:30:00,
2013-07-06 00:45:00,83.6,77.9,29.90,ESE,107,17.0,26.0,83,0.00,CLR,,0.00,WeatherDisplay:10.37,2013-07-06 06:45:00,
2013-07-06 01:00:00,83.6,77.9,29.90,ESE,110,20.0,23.0,83,0.00,CLR,,0.00,WeatherDisplay:10.37,2013-07-06 07:00:00,
2013-07-06 01:15:00,83.6,77.9,29.90,ESE,106,18.0,25.0,83,0.00,CLR,,0.00,WeatherDisplay:10.37,2013-07-06 07:15:00,
2013-07-06 01:30:00,83.6,78.2,29.89,ESE,110,17.0,23.0,84,0.00,CLR,,0.00,WeatherDisplay:10.37,2013-07-06 07:30:00,
2013-07-06 01:45:00,83.5,78.5,29.89,ESE,105,17.0,21.0,85,0.00,CLR,,0.00,WeatherDisplay:10.37,2013-07-06 07:45:00,
2013-07-06 02:00:00,83.4,78.4,29.89,ESE,114,18.0,23.0,85,0.00,CLR,,0.00,WeatherDisplay:10.37,2013-07-06 08:00:00,
2013-07-06 02:15:00,83.5,78.5,29.89,ESE,111,15.0,23.0,85,0.00,CLR,,0.00,WeatherDisplay:10.37,2013-07-06 08:15:00,
2013-07-06 02:30:00,83.4,78.4,29.89,ESE,112,18.0,23.0,85,0.00,CLR,,0.00,WeatherDisplay:10.37,2013-07-06 08:30:00,
2013-07-06 02:45:00,83.4,78.4,29.89,ESE,115,18.0,23.0,85,0.00,CLR,,0.00,WeatherDisplay:10.37,2013-07-06 08:45:00,
2013-07-06 03:00:00,83.4,78.4,29.89,ESE,112,16.0,24.0,85,0.00,CLR,,0.00,WeatherDisplay:10.37,2013-07-06 09:00:00,
2013-07-06 03:15:00,83.3,78.4,29.88,ESE,116,17.0,23.0,85,0.00,CLR,,0.00,WeatherDisplay:10.37,2013-07-06 09:15:00,
2013-07-06 03:30:00,83.4,78.4,29.88,ESE,121,18.0,24.0,85,0.00,CLR,,0.00,WeatherDisplay:10.37,2013-07-06 09:30:00,
2013-07-06 03:45:00,83.4,77.7,29.88,ESE,114,22.0,23.0,83,0.00,CLR,,0.00,WeatherDisplay:10.37,2013-07-06 09:45:00,
2013-07-06 04:00:00,83.4,77.7,29.88,ESE,115,20.0,24.0,83,0.00,CLR,,0.00,WeatherDisplay:10.37,2013-07-06 10:00:00,
2013-07-06 04:15:00,83.3,77.6,29.88,ESE,112,21.0,24.0,83,0.00,CLR,,0.00,WeatherDisplay:10.37,2013-07-06 10:15:00,
2013-07-06 04:30:00,83.4,78.1,29.88,ESE,115,20.0,25.0,84,0.00,CLR,,0.00,WeatherDisplay:10.37,2013-07-06 10:30:00,
2013-07-06 04:45:00,83.3,77.6,29.88,ESE,118,20.0,26.0,83,0.00,CLR,,0.00,WeatherDisplay:10.37,2013-07-06 10:45:00,
2013-07-06 05:00:00,83.3,76.9,29.89,ESE,115,21.0,25.0,81,0.00,CLR,,0.00,WeatherDisplay:10.37,2013-07-06 11:00:00,
2013-07-06 05:15:00,83.4,77.3,29.90,ESE,113,18.0,26.0,82,0.00,CLR,,0.00,WeatherDisplay:10.37,2013-07-06 11:15:00,
2013-07-06 05:30:00,83.5,77.8,29.90,ESE,111,17.0,24.0,83,0.00,CLR,,0.00,WeatherDisplay:10.37,2013-07-06 11:30:00,
2013-07-06 05:45:00,83.5,77.4,29.90,ESE,116,21.0,25.0,82,0.00,CLR,,0.00,WeatherDisplay:10.37,2013-07-06 11:45:00,
2013-07-06 06:00:00,83.6,78.2,29.91,ESE,117,17.0,23.0,84,0.00,CLR,,0.00,WeatherDisplay:10.37,2013-07-06 12:00:00,
2013-07-06 06:15:00,83.7,78.0,29.91,ESE,118,17.0,21.0,83,0.00,CLR,,0.00,WeatherDisplay:10.37,2013-07-06 12:15:00,
2013-07-06 06:30:00,83.9,77.4,29.91,ESE,122,20.0,22.0,81,0.00,CLR,,0.00,WeatherDisplay:10.37,2013-07-06 12:30:00,
2013-07-06 06:45:00,84.2,78.1,29.91,ESE,118,17.0,23.0,82,0.00,CLR,,0.00,WeatherDisplay:10.37,2013-07-06 12:45:00,
2013-07-06 07:00:00,84.3,77.8,29.92,ESE,117,17.0,23.0,81,0.00,CLR,,0.00,WeatherDisplay:10.37,2013-07-06 13:00:00,
2013-07-06 07:15:00,84.2,77.0,29.92,ESE,119,20.0,21.0,79,0.00,CLR,,0.00,WeatherDisplay:10.37,2013-07-06 13:15:00,
2013-07-06 07:30:00,84.7,78.2,29.93,ESE,119,15.0,22.0,81,0.00,CLR,,0.00,WeatherDisplay:10.37,2013-07-06 13:30:00,
2013-07-06 07:45:00,84.7,77.8,29.93,ESE,118,16.0,20.0,80,0.00,CLR,,0.00,WeatherDisplay:10.37,2013-07-06 13:45:00,
2013-07-06 08:00:00,84.7,77.8,29.94,ESE,117,17.0,20.0,80,0.00,CLR,,0.00,WeatherDisplay:10.37,2013-07-06 14:00:00,
2013-07-06 08:15:00,85.0,77.8,29.94,ESE,115,18.0,20.0,79,0.00,CLR,,0.00,WeatherDisplay:10.37,2013-07-06 14:15:00,
2013-07-06 08:30:00,84.9,78.1,29.94,ESE,117,16.0,21.0,80,0.00,CLR,,0.00,WeatherDisplay:10.37,2013-07-06 14:30:00,
2013-07-06 08:45:00,84.9,78.4,29.94,ESE,114,16.0,20.0,81,0.00,CLR,,0.00,WeatherDisplay:10.37,2013-07-06 14:45:00,
2013-07-06 09:00:00,85.2,78.7,29.94,ESE,117,15.0,19.0,81,0.00,CLR,,0.00,WeatherDisplay:10.37,2013-07-06 15:00:00,
2013-07-06 09:15:00,85.2,78.7,29.94,ESE,120,14.0,21.0,81,0.00,CLR,,0.00,WeatherDisplay:10.37,2013-07-06 15:15:00,
2013-07-06 09:30:00,85.2,78.4,29.94,ESE,119,16.0,19.0,80,0.00,CLR,,0.00,WeatherDisplay:10.37,2013-07-06 15:30:00,
2013-07-06 09:45:00,85.2,78.3,29.94,ESE,121,18.0,21.0,80,0.00,CLR,,0.00,WeatherDisplay:10.37,2013-07-06 15:45:00,
2013-07-06 10:00:00,85.4,78.5,29.94,ESE,122,17.0,20.0,80,0.00,CLR,,0.00,WeatherDisplay:10.37,2013-07-06 16:00:00,
2013-07-06 10:15:00,85.3,78.8,29.94,ESE,123,15.0,20.0,81,0.00,CLR,,0.00,WeatherDisplay:10.37,2013-07-06 16:15:00,
2013-07-06 10:30:00,85.4,78.5,29.94,ESE,122,17.0,20.0,80,0.00,CLR,,0.00,WeatherDisplay:10.37,2013-07-06 16:30:00,
2013-07-06 10:45:00,85.4,78.5,29.94,ESE,118,16.0,20.0,80,0.00,CLR,,0.00,WeatherDisplay:10.37,2013-07-06 16:45:00,
2013-07-06 11:00:00,85.6,78.7,29.94,ESE,115,16.0,20.0,80,0.00,CLR,,0.00,WeatherDisplay:10.37,2013-07-06 17:00:00,
2013-07-06 11:15:00,85.5,78.2,29.94,ESE,117,16.0,20.0,79,0.00,CLR,,0.00,WeatherDisplay:10.37,2013-07-06 17:15:00,
2013-07-06 11:30:00,85.5,78.6,29.94,ESE,119,14.0,18.0,80,0.00,CLR,,0.00,WeatherDisplay:10.37,2013-07-06 17:30:00,
2013-07-06 11:45:00,85.6,78.7,29.94,ESE,119,15.0,19.0,80,0.00,CLR,,0.00,WeatherDisplay:10.37,2013-07-06 17:45:00,
2013-07-06 12:00:00,85.5,78.3,29.94,ESE,114,15.0,18.0,79,0.00,CLR,,0.00,WeatherDisplay:10.37,2013-07-06 18:00:00,
2013-07-06 12:30:00,85.6,78.7,29.93,ESE,117,15.0,19.0,80,0.00,CLR,,0.00,WeatherDisplay:10.37,2013-07-06 18:30:00,
2013-07-06 12:45:00,85.7,78.4,29.92,ESE,108,15.0,19.0,79,0.00,CLR,,0.00,WeatherDisplay:10.37,2013-07-06 18:45:00,
2013-07-06 13:00:00,85.6,78.7,29.92,ESE,115,14.0,18.0,80,0.00,CLR,,0.00,WeatherDisplay:10.37,2013-07-06 19:00:00,
2013-07-06 13:15:00,86.0,79.5,29.92,ESE,116,13.0,16.0,81,0.00,CLR,,0.00,WeatherDisplay:10.37,2013-07-06 19:15:00,
2013-07-06 13:30:00,85.7,78.8,29.92,ESE,118,13.0,19.0,80,0.00,CLR,,0.00,WeatherDisplay:10.37,2013-07-06 19:30:00,
2013-07-06 13:45:00,86.0,78.8,29.91,ESE,113,15.0,19.0,79,0.00,CLR,,0.00,WeatherDisplay:10.37,2013-07-06 19:45:00,
2013-07-06 14:00:00,85.6,78.4,29.91,ESE,113,15.0,18.0,79,0.00,CLR,,0.00,WeatherDisplay:10.37,2013-07-06 20:00:00,
2013-07-06 14:15:00,85.8,78.9,29.90,ESE,119,12.0,19.0,80,0.00,CLR,,0.00,WeatherDisplay:10.37,2013-07-06 20:15:00,
2013-07-06 14:30:00,85.6,78.7,29.90,ESE,113,15.0,18.0,80,0.00,CLR,,0.00,WeatherDisplay:10.37,2013-07-06 20:30:00,
2013-07-06 14:45:00,85.4,77.8,29.90,ESE,113,16.0,18.0,78,0.00,CLR,,0.00,WeatherDisplay:10.37,2013-07-06 20:45:00,
2013-07-06 15:00:00,85.5,78.6,29.89,ESE,115,15.0,18.0,80,0.00,CLR,,0.00,WeatherDisplay:10.37,2013-07-06 21:00:00,
2013-07-06 15:30:00,85.4,79.2,29.89,ESE,114,13.0,20.0,82,0.00,CLR,,0.00,WeatherDisplay:10.37,2013-07-06 21:30:00,
2013-07-06 15:45:00,85.1,78.6,29.88,ESE,118,14.0,19.0,81,0.00,CLR,,0.00,WeatherDisplay:10.37,2013-07-06 21:45:00,
2013-07-06 16:00:00,85.3,79.2,29.88,ESE,118,15.0,19.0,82,0.00,CLR,,0.00,WeatherDisplay:10.37,2013-07-06 22:00:00,
2013-07-06 16:26:00,85.2,78.3,29.87,ESE,106,10.0,16.0,80,0.00,CLR,,0.00,WeatherDisplay:10.37,2013-07-06 22:26:00,
2013-07-06 16:45:00,84.6,78.8,29.87,East,96,10.0,21.0,83,0.00,CLR,,0.00,WeatherDisplay:10.37,2013-07-06 22:45:00,
2013-07-06 17:00:00,84.3,77.8,29.87,East,87,9.0,16.0,81,0.00,CLR,,0.00,WeatherDisplay:10.37,2013-07-06 23:00:00,
2013-07-06 17:30:00,84.3,78.6,29.88,East,93,9.0,16.0,83,0.00,CLR,,0.00,WeatherDisplay:10.37,2013-07-06 23:30:00,
2013-07-06 17:45:00,84.3,78.9,29.89,East,83,10.0,19.0,84,0.00,CLR,,0.00,WeatherDisplay:10.37,2013-07-06 23:45:00,
2013-07-06 18:00:00,84.2,78.8,29.88,ESE,106,10.0,21.0,84,0.00,CLR,,0.00,WeatherDisplay:10.37,2013-07-07 00:00:00,
2013-07-06 18:15:00,84.2,78.5,29.89,ESE,106,10.0,21.0,83,0.00,CLR,,0.00,WeatherDisplay:10.37,2013-07-07 00:15:00,
2013-07-06 18:45:00,84.1,78.4,29.90,ESE,109,9.0,23.0,83,0.00,CLR,,0.00,WeatherDisplay:10.37,2013-07-07 00:45:00,
2013-07-06 19:00:00,84.1,77.6,29.91,East,93,9.0,19.0,81,0.00,CLR,,0.00,WeatherDisplay:10.37,2013-07-07 01:00:00,
2013-07-06 19:15:00,84.2,77.7,29.91,East,94,10.0,21.0,81,0.00,CLR,,0.00,WeatherDisplay:10.37,2013-07-07 01:15:00,
2013-07-06 19:30:00,84.3,77.8,29.91,East,100,9.0,24.0,81,0.00,CLR,,0.00,WeatherDisplay:10.37,2013-07-07 01:30:00,
2013-07-06 19:45:00,84.2,78.1,29.92,SE,124,10.0,20.0,82,0.00,CLR,,0.00,WeatherDisplay:10.37,2013-07-07 01:45:00,
2013-07-06 20:00:00,84.1,78.0,29.92,ESE,102,17.0,24.0,82,0.00,CLR,,0.00,WeatherDisplay:10.37,2013-07-07 02:00:00,
2013-07-06 20:15:00,83.9,77.8,29.92,East,87,12.0,25.0,82,0.00,CLR,,0.00,WeatherDisplay:10.37,2013-07-07 02:15:00,
2013-07-06 20:45:00,83.8,77.3,29.92,ESE,102,17.0,25.0,81,0.00,CLR,,0.00,WeatherDisplay:10.37,2013-07-07 02:45:00,
2013-07-06 21:00:00,83.7,79.1,29.93,East,83,8.0,24.0,86,0.00,CLR,,0.00,WeatherDisplay:10.37,2013-07-07 03:00:00,
2013-07-06 21:15:00,83.6,77.9,29.93,East,90,12.0,24.0,83,0.00,CLR,,0.00,WeatherDisplay:10.37,2013-07-07 03:15:00,
2013-07-06 21:30:00,83.6,78.2,29.94,East,90,12.0,24.0,84,0.00,CLR,,0.00,WeatherDisplay:10.37,2013-07-07 03:30:00,
2013-07-06 21:45:00,83.6,77.9,29.94,ESE,102,13.0,24.0,83,0.00,CLR,,0.00,WeatherDisplay:10.37,2013-07-07 03:45:00,
2013-07-06 22:00:00,83.5,77.8,29.94,East,100,21.0,26.0,83,0.00,CLR,,0.00,WeatherDisplay:10.37,2013-07-07 04:00:00,
2013-07-06 22:15:00,83.5,77.8,29.94,East,97,12.0,29.0,83,0.00,CLR,,0.00,WeatherDisplay:10.37,2013-07-07 04:15:00,
2013-07-06 22:30:00,83.6,78.2,29.95,ESE,110,12.0,28.0,84,0.00,CLR,,0.00,WeatherDisplay:10.37,2013-07-07 04:30:00,
2013-07-06 22:45:00,83.5,78.5,29.94,East,93,12.0,24.0,85,0.00,CLR,,0.00,WeatherDisplay:10.37,2013-07-07 04:45:00,
2013-07-06 23:00:00,83.4,77.7,29.94,ESE,107,15.0,24.0,83,0.00,CLR,,0.00,WeatherDisplay:10.37,2013-07-07 05:00:00,
2013-07-06 23:15:00,83.4,77.7,29.94,ESE,105,16.0,24.0,83,0.00,CLR,,0.00,WeatherDisplay:10.37,2013-07-07 05:15:00,
2013-07-06 23:30:00,83.5,77.4,29.93,ESE,110,17.0,24.0,82,0.00,CLR,,0.00,WeatherDisplay:10.37,2013-07-07 05:30:00,
2013-07-06 23:45:00,83.5,77.4,29.93,East,100,14.0,25.0,82,0.00,CLR,,0.00,WeatherDisplay:10.37,2013-07-07 05:45:00,